Year,Month,Day,Hour,Minute,Value (Times are PST for temperature in C)
2014,01,20,00,00,4.60
2014,01,20,00,01,4.60
2014,01,20,00,02,4.60
2014,01,20,00,03,4.60
2014,01,20,00,04,4.60
2014,01,20,00,05,4.60
2014,01,20,00,06,4.60
2014,01,20,00,07,4.60
2014,01,20,00,08,4.60
2014,01,20,00,09,4.50
2014,01,20,00,10,4.50
2014,01,20,00,11,4.50
2014,01,20,00,12,4.50
2014,01,20,00,13,4.50
2014,01,20,00,14,4.50
2014,01,20,00,15,4.50
2014,01,20,00,16,4.50
2014,01,20,00,17,4.50
2014,01,20,00,18,4.50
2014,01,20,00,19,4.50
2014,01,20,00,20,4.50
2014,01,20,00,21,4.50
2014,01,20,00,22,4.50
2014,01,20,00,23,4.50
2014,01,20,00,24,4.50
2014,01,20,00,25,4.50
2014,01,20,00,26,4.50
2014,01,20,00,27,4.50
2014,01,20,00,28,4.50
2014,01,20,00,29,4.50
2014,01,20,00,30,4.50
2014,01,20,00,31,4.50
2014,01,20,00,32,4.50
2014,01,20,00,33,4.50
2014,01,20,00,34,4.50
2014,01,20,00,35,4.50
2014,01,20,00,36,4.50
2014,01,20,00,37,4.50
2014,01,20,00,38,4.50
2014,01,20,00,39,4.50
2014,01,20,00,40,4.50
2014,01,20,00,41,4.50
2014,01,20,00,42,4.50
2014,01,20,00,43,4.50
2014,01,20,00,44,4.50
2014,01,20,00,45,4.50
2014,01,20,00,46,4.50
2014,01,20,00,47,4.50
2014,01,20,00,48,4.50
2014,01,20,00,49,4.50
2014,01,20,00,50,4.50
2014,01,20,00,51,4.50
2014,01,20,00,52,4.50
2014,01,20,00,53,4.50
2014,01,20,00,54,4.50
2014,01,20,00,55,4.50
2014,01,20,00,56,4.50
2014,01,20,00,57,4.50
2014,01,20,00,58,4.50
2014,01,20,00,59,4.50
2014,01,20,01,00,4.60
2014,01,20,01,01,4.60
2014,01,20,01,02,4.60
2014,01,20,01,03,4.60
2014,01,20,01,04,4.60
2014,01,20,01,05,4.60
2014,01,20,01,06,4.60
2014,01,20,01,07,4.60
2014,01,20,01,08,4.60
2014,01,20,01,09,4.60
2014,01,20,01,10,4.60
2014,01,20,01,11,4.60
2014,01,20,01,12,4.60
2014,01,20,01,13,4.50
2014,01,20,01,14,4.50
2014,01,20,01,15,4.50
2014,01,20,01,16,4.60
2014,01,20,01,17,4.50
2014,01,20,01,18,4.50
2014,01,20,01,19,4.60
2014,01,20,01,20,4.60
2014,01,20,01,21,4.60
2014,01,20,01,22,4.60
2014,01,20,01,23,4.60
2014,01,20,01,24,4.60
2014,01,20,01,25,4.60
2014,01,20,01,26,4.60
2014,01,20,01,27,4.60
2014,01,20,01,28,4.60
2014,01,20,01,29,4.60
2014,01,20,01,30,4.60
2014,01,20,01,31,4.50
2014,01,20,01,32,4.60
2014,01,20,01,33,4.50
2014,01,20,01,34,4.50
2014,01,20,01,35,4.50
2014,01,20,01,36,4.50
2014,01,20,01,37,4.50
2014,01,20,01,38,4.50
2014,01,20,01,39,4.50
2014,01,20,01,40,4.50
2014,01,20,01,41,4.50
2014,01,20,01,42,4.50
2014,01,20,01,43,4.50
2014,01,20,01,44,4.50
2014,01,20,01,45,4.50
2014,01,20,01,46,4.50
2014,01,20,01,47,4.50
2014,01,20,01,48,4.50
2014,01,20,01,49,4.40
2014,01,20,01,50,4.40
2014,01,20,01,51,4.40
2014,01,20,01,52,4.40
2014,01,20,01,53,4.40
2014,01,20,01,54,4.40
2014,01,20,01,55,4.40
2014,01,20,01,56,4.40
2014,01,20,01,57,4.40
2014,01,20,01,58,4.40
2014,01,20,01,59,4.40
2014,01,20,02,00,4.40
2014,01,20,02,01,4.40
2014,01,20,02,02,4.40
2014,01,20,02,03,4.30
2014,01,20,02,04,4.30
2014,01,20,02,05,4.30
2014,01,20,02,06,4.30
2014,01,20,02,07,4.30
2014,01,20,02,08,4.30
2014,01,20,02,09,4.30
2014,01,20,02,10,4.30
2014,01,20,02,11,4.30
2014,01,20,02,12,4.30
2014,01,20,02,13,4.30
2014,01,20,02,14,4.30
2014,01,20,02,15,4.30
2014,01,20,02,16,4.30
2014,01,20,02,17,4.30
2014,01,20,02,18,4.30
2014,01,20,02,19,4.30
2014,01,20,02,20,4.30
2014,01,20,02,21,4.30
2014,01,20,02,22,4.30
2014,01,20,02,23,4.30
2014,01,20,02,24,4.30
2014,01,20,02,25,4.30
2014,01,20,02,26,4.30
2014,01,20,02,27,4.30
2014,01,20,02,28,4.20
2014,01,20,02,29,4.20
2014,01,20,02,30,4.20
2014,01,20,02,31,4.20
2014,01,20,02,32,4.20
2014,01,20,02,33,4.20
2014,01,20,02,34,4.20
2014,01,20,02,35,4.20
2014,01,20,02,36,4.20
2014,01,20,02,37,4.20
2014,01,20,02,38,4.20
2014,01,20,02,39,4.20
2014,01,20,02,40,4.20
2014,01,20,02,41,4.20
2014,01,20,02,42,4.20
2014,01,20,02,43,4.20
2014,01,20,02,44,4.20
2014,01,20,02,45,4.20
2014,01,20,02,46,4.20
2014,01,20,02,47,4.20
2014,01,20,02,48,4.20
2014,01,20,02,49,4.20
2014,01,20,02,50,4.20
2014,01,20,02,51,4.20
2014,01,20,02,52,4.20
2014,01,20,02,53,4.20
2014,01,20,02,54,4.20
2014,01,20,02,55,4.20
2014,01,20,02,56,4.20
2014,01,20,02,57,4.20
2014,01,20,02,58,4.20
2014,01,20,02,59,4.20
2014,01,20,03,00,4.20
2014,01,20,03,01,4.10
2014,01,20,03,02,4.10
2014,01,20,03,03,4.10
2014,01,20,03,04,4.10
2014,01,20,03,05,4.10
2014,01,20,03,06,4.10
2014,01,20,03,07,4.10
2014,01,20,03,08,4.10
2014,01,20,03,09,4.10
2014,01,20,03,10,4.10
2014,01,20,03,11,4.10
2014,01,20,03,12,4.10
2014,01,20,03,13,4.10
2014,01,20,03,14,4.10
2014,01,20,03,15,4.10
2014,01,20,03,16,4.10
2014,01,20,03,17,4.10
2014,01,20,03,18,4.10
2014,01,20,03,19,4.10
2014,01,20,03,20,4.10
2014,01,20,03,21,4.10
2014,01,20,03,22,4.10
2014,01,20,03,23,4.10
2014,01,20,03,24,4.10
2014,01,20,03,25,4.10
2014,01,20,03,26,4.10
2014,01,20,03,27,4.10
2014,01,20,03,28,4.10
2014,01,20,03,29,4.10
2014,01,20,03,30,4.10
2014,01,20,03,31,4.10
2014,01,20,03,32,4.10
2014,01,20,03,33,4.00
2014,01,20,03,34,4.00
2014,01,20,03,35,4.00
2014,01,20,03,36,4.00
2014,01,20,03,37,4.00
2014,01,20,03,38,4.00
2014,01,20,03,39,4.00
2014,01,20,03,40,4.00
2014,01,20,03,41,4.00
2014,01,20,03,42,4.00
2014,01,20,03,43,4.00
2014,01,20,03,44,4.00
2014,01,20,03,45,4.00
2014,01,20,03,46,4.00
2014,01,20,03,47,4.00
2014,01,20,03,48,4.00
2014,01,20,03,49,4.00
2014,01,20,03,50,4.00
2014,01,20,03,51,4.00
2014,01,20,03,52,4.00
2014,01,20,03,53,4.00
2014,01,20,03,54,4.00
2014,01,20,03,55,4.00
2014,01,20,03,56,4.00
2014,01,20,03,57,4.00
2014,01,20,03,58,4.00
2014,01,20,03,59,4.00
2014,01,20,04,00,4.00
2014,01,20,04,01,4.00
2014,01,20,04,02,4.00
2014,01,20,04,03,4.00
2014,01,20,04,04,4.00
2014,01,20,04,05,4.00
2014,01,20,04,06,4.00
2014,01,20,04,07,4.00
2014,01,20,04,08,4.00
2014,01,20,04,09,4.00
2014,01,20,04,10,4.00
2014,01,20,04,11,4.00
2014,01,20,04,12,4.00
2014,01,20,04,13,4.00
2014,01,20,04,14,3.90
2014,01,20,04,15,3.90
2014,01,20,04,16,3.90
2014,01,20,04,17,3.90
2014,01,20,04,18,3.90
2014,01,20,04,19,3.90
2014,01,20,04,20,3.90
2014,01,20,04,21,3.90
2014,01,20,04,22,3.90
2014,01,20,04,23,3.90
2014,01,20,04,24,3.90
2014,01,20,04,25,3.90
2014,01,20,04,26,3.90
2014,01,20,04,27,3.90
2014,01,20,04,28,3.90
2014,01,20,04,29,3.90
2014,01,20,04,30,3.90
2014,01,20,04,31,3.90
2014,01,20,04,32,3.90
2014,01,20,04,33,3.90
2014,01,20,04,34,3.90
2014,01,20,04,35,3.90
2014,01,20,04,36,3.90
2014,01,20,04,37,3.90
2014,01,20,04,38,3.90
2014,01,20,04,39,3.90
2014,01,20,04,40,3.90
2014,01,20,04,41,3.90
2014,01,20,04,42,3.80
2014,01,20,04,43,3.80
2014,01,20,04,44,3.80
2014,01,20,04,45,3.80
2014,01,20,04,46,3.80
2014,01,20,04,47,3.80
2014,01,20,04,48,3.80
2014,01,20,04,49,3.80
2014,01,20,04,50,3.80
2014,01,20,04,51,3.80
2014,01,20,04,52,3.80
2014,01,20,04,53,3.80
2014,01,20,04,54,3.80
2014,01,20,04,55,3.80
2014,01,20,04,56,3.80
2014,01,20,04,57,3.80
2014,01,20,04,58,3.80
2014,01,20,04,59,3.80
2014,01,20,05,00,3.80
2014,01,20,05,01,3.80
2014,01,20,05,02,3.80
2014,01,20,05,03,3.80
2014,01,20,05,04,3.80
2014,01,20,05,05,3.80
2014,01,20,05,06,3.80
2014,01,20,05,07,3.80
2014,01,20,05,08,3.80
2014,01,20,05,09,3.80
2014,01,20,05,10,3.80
2014,01,20,05,11,3.80
2014,01,20,05,12,3.80
2014,01,20,05,13,3.80
2014,01,20,05,14,3.80
2014,01,20,05,15,3.80
2014,01,20,05,16,3.80
2014,01,20,05,17,3.80
2014,01,20,05,18,3.80
2014,01,20,05,19,3.80
2014,01,20,05,20,3.80
2014,01,20,05,21,3.80
2014,01,20,05,22,3.80
2014,01,20,05,23,3.80
2014,01,20,05,24,3.80
2014,01,20,05,25,3.80
2014,01,20,05,26,3.80
2014,01,20,05,27,3.80
2014,01,20,05,28,3.80
2014,01,20,05,29,3.80
2014,01,20,05,30,3.80
2014,01,20,05,31,3.80
2014,01,20,05,32,3.80
2014,01,20,05,33,3.80
2014,01,20,05,34,3.80
2014,01,20,05,35,3.80
2014,01,20,05,36,3.80
2014,01,20,05,37,3.80
2014,01,20,05,38,3.80
2014,01,20,05,39,3.80
2014,01,20,05,40,3.80
2014,01,20,05,41,3.80
2014,01,20,05,42,3.80
2014,01,20,05,43,3.80
2014,01,20,05,44,3.80
2014,01,20,05,45,3.80
2014,01,20,05,46,3.80
2014,01,20,05,47,3.80
2014,01,20,05,48,3.80
2014,01,20,05,49,3.80
2014,01,20,05,50,3.80
2014,01,20,05,51,3.80
2014,01,20,05,52,3.80
2014,01,20,05,53,3.80
2014,01,20,05,54,3.80
2014,01,20,05,55,3.80
2014,01,20,05,56,3.80
2014,01,20,05,57,3.80
2014,01,20,05,58,3.80
2014,01,20,05,59,3.80
2014,01,20,06,00,3.80
2014,01,20,06,01,3.80
2014,01,20,06,02,3.80
2014,01,20,06,03,3.70
2014,01,20,06,04,3.70
2014,01,20,06,05,3.70
2014,01,20,06,06,3.70
2014,01,20,06,07,3.70
2014,01,20,06,08,3.70
2014,01,20,06,09,3.70
2014,01,20,06,10,3.70
2014,01,20,06,11,3.70
2014,01,20,06,12,3.70
2014,01,20,06,13,3.70
2014,01,20,06,14,3.70
2014,01,20,06,15,3.70
2014,01,20,06,16,3.70
2014,01,20,06,17,3.70
2014,01,20,06,18,3.70
2014,01,20,06,19,3.70
2014,01,20,06,20,3.60
2014,01,20,06,21,3.60
2014,01,20,06,22,3.60
2014,01,20,06,23,3.60
2014,01,20,06,24,3.60
2014,01,20,06,25,3.60
2014,01,20,06,26,3.60
2014,01,20,06,27,3.60
2014,01,20,06,28,3.60
2014,01,20,06,29,3.60
2014,01,20,06,30,3.60
2014,01,20,06,31,3.60
2014,01,20,06,32,3.60
2014,01,20,06,33,3.60
2014,01,20,06,34,3.60
2014,01,20,06,35,3.60
2014,01,20,06,36,3.60
2014,01,20,06,37,3.60
2014,01,20,06,38,3.60
2014,01,20,06,39,3.60
2014,01,20,06,40,3.60
2014,01,20,06,41,3.60
2014,01,20,06,42,3.60
2014,01,20,06,43,3.60
2014,01,20,06,44,3.60
2014,01,20,06,45,3.60
2014,01,20,06,46,3.60
2014,01,20,06,47,3.60
2014,01,20,06,48,3.60
2014,01,20,06,49,3.60
2014,01,20,06,50,3.60
2014,01,20,06,51,3.60
2014,01,20,06,52,3.60
2014,01,20,06,53,3.60
2014,01,20,06,54,3.60
2014,01,20,06,55,3.60
2014,01,20,06,56,3.60
2014,01,20,06,57,3.60
2014,01,20,06,58,3.60
2014,01,20,06,59,3.60
2014,01,20,07,00,3.60
2014,01,20,07,01,3.60
2014,01,20,07,02,3.60
2014,01,20,07,03,3.60
2014,01,20,07,04,3.60
2014,01,20,07,05,3.60
2014,01,20,07,06,3.60
2014,01,20,07,07,3.60
2014,01,20,07,08,3.60
2014,01,20,07,09,3.60
2014,01,20,07,10,3.60
2014,01,20,07,11,3.60
2014,01,20,07,12,3.60
2014,01,20,07,13,3.60
2014,01,20,07,14,3.60
2014,01,20,07,15,3.60
2014,01,20,07,16,3.60
2014,01,20,07,17,3.60
2014,01,20,07,18,3.60
2014,01,20,07,19,3.60
2014,01,20,07,20,3.60
2014,01,20,07,21,3.60
2014,01,20,07,22,3.60
2014,01,20,07,23,3.60
2014,01,20,07,24,3.60
2014,01,20,07,25,3.60
2014,01,20,07,26,3.60
2014,01,20,07,27,3.60
2014,01,20,07,28,3.60
2014,01,20,07,29,3.60
2014,01,20,07,30,3.60
2014,01,20,07,31,3.60
2014,01,20,07,32,3.60
2014,01,20,07,33,3.60
2014,01,20,07,34,3.60
2014,01,20,07,35,3.60
2014,01,20,07,36,3.60
2014,01,20,07,37,3.60
2014,01,20,07,38,3.60
2014,01,20,07,39,3.60
2014,01,20,07,40,3.60
2014,01,20,07,41,3.60
2014,01,20,07,42,3.60
2014,01,20,07,43,3.60
2014,01,20,07,44,3.60
2014,01,20,07,45,3.60
2014,01,20,07,46,3.60
2014,01,20,07,47,3.60
2014,01,20,07,48,3.60
2014,01,20,07,49,3.60
2014,01,20,07,50,3.60
2014,01,20,07,51,3.60
2014,01,20,07,52,3.60
2014,01,20,07,53,3.60
2014,01,20,07,54,3.60
2014,01,20,07,55,3.60
2014,01,20,07,56,3.60
2014,01,20,07,57,3.60
2014,01,20,07,58,3.60
2014,01,20,07,59,3.60
2014,01,20,08,00,3.60
2014,01,20,08,01,3.60
2014,01,20,08,02,3.60
2014,01,20,08,03,3.60
2014,01,20,08,04,3.60
2014,01,20,08,05,3.60
2014,01,20,08,06,3.60
2014,01,20,08,07,3.60
2014,01,20,08,08,3.60
2014,01,20,08,09,3.60
2014,01,20,08,10,3.60
2014,01,20,08,11,3.60
2014,01,20,08,12,3.60
2014,01,20,08,13,3.60
2014,01,20,08,14,3.60
2014,01,20,08,15,3.60
2014,01,20,08,16,3.60
2014,01,20,08,17,3.60
2014,01,20,08,18,3.60
2014,01,20,08,19,3.60
2014,01,20,08,20,3.60
2014,01,20,08,21,3.60
2014,01,20,08,22,3.60
2014,01,20,08,23,3.60
2014,01,20,08,24,3.60
2014,01,20,08,25,3.60
2014,01,20,08,26,3.60
2014,01,20,08,27,3.60
2014,01,20,08,28,3.60
2014,01,20,08,29,3.70
2014,01,20,08,30,3.60
2014,01,20,08,31,3.70
2014,01,20,08,32,3.70
2014,01,20,08,33,3.70
2014,01,20,08,34,3.70
2014,01,20,08,35,3.70
2014,01,20,08,36,3.70
2014,01,20,08,37,3.70
2014,01,20,08,38,3.70
2014,01,20,08,39,3.70
2014,01,20,08,40,3.70
2014,01,20,08,41,3.70
2014,01,20,08,42,3.70
2014,01,20,08,43,3.70
2014,01,20,08,44,3.70
2014,01,20,08,45,3.70
2014,01,20,08,46,3.70
2014,01,20,08,47,3.70
2014,01,20,08,48,3.70
2014,01,20,08,49,3.70
2014,01,20,08,50,3.70
2014,01,20,08,51,3.70
2014,01,20,08,52,3.70
2014,01,20,08,53,3.70
2014,01,20,08,54,3.70
2014,01,20,08,55,3.70
2014,01,20,08,56,3.70
2014,01,20,08,57,3.70
2014,01,20,08,58,3.70
2014,01,20,08,59,3.80
2014,01,20,09,00,3.80
2014,01,20,09,01,3.80
2014,01,20,09,02,3.80
2014,01,20,09,03,3.80
2014,01,20,09,04,3.80
2014,01,20,09,05,3.80
2014,01,20,09,06,3.80
2014,01,20,09,07,3.80
2014,01,20,09,08,3.80
2014,01,20,09,09,3.80
2014,01,20,09,10,3.80
2014,01,20,09,11,3.80
2014,01,20,09,12,3.80
2014,01,20,09,13,3.80
2014,01,20,09,14,3.80
2014,01,20,09,15,3.80
2014,01,20,09,16,3.80
2014,01,20,09,17,3.90
2014,01,20,09,18,3.90
2014,01,20,09,19,3.90
2014,01,20,09,20,3.90
2014,01,20,09,21,3.90
2014,01,20,09,22,3.90
2014,01,20,09,23,3.90
2014,01,20,09,24,3.90
2014,01,20,09,25,3.90
2014,01,20,09,26,4.00
2014,01,20,09,27,4.00
2014,01,20,09,28,4.00
2014,01,20,09,29,4.00
2014,01,20,09,30,4.00
2014,01,20,09,31,4.00
2014,01,20,09,32,4.10
2014,01,20,09,33,4.10
2014,01,20,09,34,4.10
2014,01,20,09,35,4.10
2014,01,20,09,36,4.10
2014,01,20,09,37,4.10
2014,01,20,09,38,4.10
2014,01,20,09,39,4.10
2014,01,20,09,40,4.10
2014,01,20,09,41,4.10
2014,01,20,09,42,4.10
2014,01,20,09,43,4.10
2014,01,20,09,44,4.10
2014,01,20,09,45,4.10
2014,01,20,09,46,4.10
2014,01,20,09,47,4.20
2014,01,20,09,48,4.20
2014,01,20,09,49,4.20
2014,01,20,09,50,4.20
2014,01,20,09,51,4.20
2014,01,20,09,52,4.20
2014,01,20,09,53,4.20
2014,01,20,09,54,4.20
2014,01,20,09,55,4.20
2014,01,20,09,56,4.20
2014,01,20,09,57,4.20
2014,01,20,09,58,4.20
2014,01,20,09,59,4.20
2014,01,20,10,00,4.20
2014,01,20,10,01,4.20
2014,01,20,10,02,4.30
2014,01,20,10,03,4.30
2014,01,20,10,04,4.30
2014,01,20,10,05,4.30
2014,01,20,10,06,4.30
2014,01,20,10,07,4.30
2014,01,20,10,08,4.30
2014,01,20,10,09,4.30
2014,01,20,10,10,4.30
2014,01,20,10,11,4.30
2014,01,20,10,12,4.40
2014,01,20,10,13,4.40
2014,01,20,10,14,4.40
2014,01,20,10,15,4.40
2014,01,20,10,16,4.50
2014,01,20,10,17,4.50
2014,01,20,10,18,4.50
2014,01,20,10,19,4.60
2014,01,20,10,20,4.60
2014,01,20,10,21,4.60
2014,01,20,10,22,4.60
2014,01,20,10,23,4.60
2014,01,20,10,24,4.70
2014,01,20,10,25,4.70
2014,01,20,10,26,4.70
2014,01,20,10,27,4.70
2014,01,20,10,28,4.80
2014,01,20,10,29,4.80
2014,01,20,10,30,4.80
2014,01,20,10,31,4.80
2014,01,20,10,32,4.90
2014,01,20,10,33,4.90
2014,01,20,10,34,4.90
2014,01,20,10,35,5.00
2014,01,20,10,36,5.00
2014,01,20,10,37,5.00
2014,01,20,10,38,5.10
2014,01,20,10,39,5.10
2014,01,20,10,40,5.10
2014,01,20,10,41,5.10
2014,01,20,10,42,5.20
2014,01,20,10,43,5.20
2014,01,20,10,44,5.20
2014,01,20,10,45,5.30
2014,01,20,10,46,5.30
2014,01,20,10,47,5.30
2014,01,20,10,48,5.30
2014,01,20,10,49,5.30
2014,01,20,10,50,5.30
2014,01,20,10,51,5.40
2014,01,20,10,52,5.40
2014,01,20,10,53,5.40
2014,01,20,10,54,5.40
2014,01,20,10,55,5.40
2014,01,20,10,56,5.40
2014,01,20,10,57,5.50
2014,01,20,10,58,5.50
2014,01,20,10,59,5.50
2014,01,20,11,00,5.60
2014,01,20,11,01,5.60
2014,01,20,11,02,5.60
2014,01,20,11,03,5.60
2014,01,20,11,04,5.60
2014,01,20,11,05,5.60
2014,01,20,11,06,5.60
2014,01,20,11,07,5.60
2014,01,20,11,08,5.60
2014,01,20,11,09,5.60
2014,01,20,11,10,5.60
2014,01,20,11,11,5.70
2014,01,20,11,12,5.70
2014,01,20,11,13,5.70
2014,01,20,11,14,5.70
2014,01,20,11,15,5.70
2014,01,20,11,16,5.70
2014,01,20,11,17,5.70
2014,01,20,11,18,5.70
2014,01,20,11,19,5.70
2014,01,20,11,20,5.70
2014,01,20,11,21,5.70
2014,01,20,11,22,5.70
2014,01,20,11,23,5.70
2014,01,20,11,24,5.70
2014,01,20,11,25,5.70
2014,01,20,11,26,5.70
2014,01,20,11,27,5.80
2014,01,20,11,28,5.80
2014,01,20,11,29,5.80
2014,01,20,11,30,5.80
2014,01,20,11,31,5.80
2014,01,20,11,32,5.80
2014,01,20,11,33,5.70
2014,01,20,11,34,5.70
2014,01,20,11,35,5.80
2014,01,20,11,36,5.80
2014,01,20,11,37,5.80
2014,01,20,11,38,5.80
2014,01,20,11,39,5.80
2014,01,20,11,40,5.90
2014,01,20,11,41,5.90
2014,01,20,11,42,5.90
2014,01,20,11,43,5.90
2014,01,20,11,44,5.90
2014,01,20,11,45,5.90
2014,01,20,11,46,6.00
2014,01,20,11,47,6.00
2014,01,20,11,48,6.00
2014,01,20,11,49,6.00
2014,01,20,11,50,6.10
2014,01,20,11,51,6.10
2014,01,20,11,52,6.10
2014,01,20,11,53,6.10
2014,01,20,11,54,6.10
2014,01,20,11,55,6.20
2014,01,20,11,56,6.20
2014,01,20,11,57,6.20
2014,01,20,11,58,6.20
2014,01,20,11,59,6.10
2014,01,20,12,00,6.10
2014,01,20,12,01,6.10
2014,01,20,12,02,6.10
2014,01,20,12,03,6.10
2014,01,20,12,04,6.10
2014,01,20,12,05,6.10
2014,01,20,12,06,6.10
2014,01,20,12,07,6.10
2014,01,20,12,08,6.10
2014,01,20,12,09,6.10
2014,01,20,12,10,6.10
2014,01,20,12,11,6.10
2014,01,20,12,12,6.10
2014,01,20,12,13,6.10
2014,01,20,12,14,6.10
2014,01,20,12,15,6.20
2014,01,20,12,16,6.20
2014,01,20,12,17,6.20
2014,01,20,12,18,6.20
2014,01,20,12,19,6.20
2014,01,20,12,20,6.20
2014,01,20,12,21,6.20
2014,01,20,12,22,6.20
2014,01,20,12,23,6.20
2014,01,20,12,24,6.20
2014,01,20,12,25,6.20
2014,01,20,12,26,6.20
2014,01,20,12,27,6.30
2014,01,20,12,28,6.30
2014,01,20,12,29,6.30
2014,01,20,12,30,6.30
2014,01,20,12,31,6.30
2014,01,20,12,32,6.30
2014,01,20,12,33,6.30
2014,01,20,12,34,6.30
2014,01,20,12,35,6.30
2014,01,20,12,36,6.30
2014,01,20,12,37,6.30
2014,01,20,12,38,6.30
2014,01,20,12,39,6.30
2014,01,20,12,40,6.40
2014,01,20,12,41,6.40
2014,01,20,12,42,6.40
2014,01,20,12,43,6.40
2014,01,20,12,44,6.40
2014,01,20,12,45,6.40
2014,01,20,12,46,6.40
2014,01,20,12,47,6.40
2014,01,20,12,48,6.40
2014,01,20,12,49,6.40
2014,01,20,12,50,6.40
2014,01,20,12,51,6.40
2014,01,20,12,52,6.40
2014,01,20,12,53,6.40
2014,01,20,12,54,6.40
2014,01,20,12,55,6.40
2014,01,20,12,56,6.40
2014,01,20,12,57,6.40
2014,01,20,12,58,6.30
2014,01,20,12,59,6.30
2014,01,20,13,00,6.30
2014,01,20,13,01,6.30
2014,01,20,13,02,6.30
2014,01,20,13,03,6.30
2014,01,20,13,04,6.30
2014,01,20,13,05,6.30
2014,01,20,13,06,6.20
2014,01,20,13,07,6.20
2014,01,20,13,08,6.20
2014,01,20,13,09,6.20
2014,01,20,13,10,6.10
2014,01,20,13,11,6.10
2014,01,20,13,12,6.10
2014,01,20,13,13,6.10
2014,01,20,13,14,6.10
2014,01,20,13,15,6.10
2014,01,20,13,16,6.10
2014,01,20,13,17,6.10
2014,01,20,13,18,6.10
2014,01,20,13,19,6.10
2014,01,20,13,20,6.10
2014,01,20,13,21,6.00
2014,01,20,13,22,6.00
2014,01,20,13,23,6.00
2014,01,20,13,24,5.90
2014,01,20,13,25,5.90
2014,01,20,13,26,5.90
2014,01,20,13,27,5.90
2014,01,20,13,28,5.90
2014,01,20,13,29,5.90
2014,01,20,13,30,5.90
2014,01,20,13,31,5.90
2014,01,20,13,32,5.90
2014,01,20,13,33,5.90
2014,01,20,13,34,5.90
2014,01,20,13,35,5.90
2014,01,20,13,36,5.90
2014,01,20,13,37,5.90
2014,01,20,13,38,5.90
2014,01,20,13,39,5.90
2014,01,20,13,40,5.90
2014,01,20,13,41,5.90
2014,01,20,13,42,5.90
2014,01,20,13,43,5.90
2014,01,20,13,44,5.90
2014,01,20,13,45,5.90
2014,01,20,13,46,6.00
2014,01,20,13,47,6.00
2014,01,20,13,48,6.10
2014,01,20,13,49,6.10
2014,01,20,13,50,6.10
2014,01,20,13,51,6.10
2014,01,20,13,52,6.10
2014,01,20,13,53,6.10
2014,01,20,13,54,6.10
2014,01,20,13,55,6.10
2014,01,20,13,56,6.10
2014,01,20,13,57,6.10
2014,01,20,13,58,6.10
2014,01,20,13,59,6.10
2014,01,20,14,00,6.10
2014,01,20,14,01,6.10
2014,01,20,14,02,6.10
2014,01,20,14,03,6.20
2014,01,20,14,04,6.20
2014,01,20,14,05,6.10
2014,01,20,14,06,6.10
2014,01,20,14,07,6.10
2014,01,20,14,08,6.10
2014,01,20,14,09,6.00
2014,01,20,14,10,6.00
2014,01,20,14,11,6.00
2014,01,20,14,12,6.00
2014,01,20,14,13,6.00
2014,01,20,14,14,5.90
2014,01,20,14,15,5.90
2014,01,20,14,16,5.90
2014,01,20,14,17,5.90
2014,01,20,14,18,5.90
2014,01,20,14,19,5.90
2014,01,20,14,20,5.90
2014,01,20,14,21,5.80
2014,01,20,14,22,5.80
2014,01,20,14,23,5.80
2014,01,20,14,24,5.90
2014,01,20,14,25,5.90
2014,01,20,14,26,5.80
2014,01,20,14,27,5.80
2014,01,20,14,28,5.80
2014,01,20,14,29,5.80
2014,01,20,14,30,5.80
2014,01,20,14,31,5.80
2014,01,20,14,32,5.80
2014,01,20,14,33,5.80
2014,01,20,14,34,5.70
2014,01,20,14,35,5.70
2014,01,20,14,36,5.70
2014,01,20,14,37,5.70
2014,01,20,14,38,5.70
2014,01,20,14,39,5.70
2014,01,20,14,40,5.70
2014,01,20,14,41,5.70
2014,01,20,14,42,5.70
2014,01,20,14,43,5.70
2014,01,20,14,44,5.80
2014,01,20,14,45,5.80
2014,01,20,14,46,5.80
2014,01,20,14,47,5.80
2014,01,20,14,48,5.80
2014,01,20,14,49,5.80
2014,01,20,14,50,5.80
2014,01,20,14,51,5.80
2014,01,20,14,52,5.80
2014,01,20,14,53,5.80
2014,01,20,14,54,5.80
2014,01,20,14,55,5.80
2014,01,20,14,56,5.80
2014,01,20,14,57,5.80
2014,01,20,14,58,5.80
2014,01,20,14,59,5.80
2014,01,20,15,00,5.80
2014,01,20,15,01,5.80
2014,01,20,15,02,5.80
2014,01,20,15,03,5.80
2014,01,20,15,04,5.80
2014,01,20,15,05,5.70
2014,01,20,15,06,5.70
2014,01,20,15,07,5.70
2014,01,20,15,08,5.70
2014,01,20,15,09,5.70
2014,01,20,15,10,5.70
2014,01,20,15,11,5.70
2014,01,20,15,12,5.70
2014,01,20,15,13,5.70
2014,01,20,15,14,5.70
2014,01,20,15,15,5.70
2014,01,20,15,16,5.70
2014,01,20,15,17,5.70
2014,01,20,15,18,5.70
2014,01,20,15,19,5.70
2014,01,20,15,20,5.70
2014,01,20,15,21,5.70
2014,01,20,15,22,5.70
2014,01,20,15,23,5.70
2014,01,20,15,24,5.70
2014,01,20,15,25,5.70
2014,01,20,15,26,5.70
2014,01,20,15,27,5.70
2014,01,20,15,28,5.70
2014,01,20,15,29,5.70
2014,01,20,15,30,5.70
2014,01,20,15,31,5.80
2014,01,20,15,32,5.80
2014,01,20,15,33,5.80
2014,01,20,15,34,5.80
2014,01,20,15,35,5.80
2014,01,20,15,36,5.80
2014,01,20,15,37,5.80
2014,01,20,15,38,5.80
2014,01,20,15,39,5.70
2014,01,20,15,40,5.70
2014,01,20,15,41,5.70
2014,01,20,15,42,5.70
2014,01,20,15,43,5.70
2014,01,20,15,44,5.70
2014,01,20,15,45,5.70
2014,01,20,15,46,5.70
2014,01,20,15,47,5.70
2014,01,20,15,48,5.70
2014,01,20,15,49,5.70
2014,01,20,15,50,5.70
2014,01,20,15,51,5.70
2014,01,20,15,52,5.70
2014,01,20,15,53,5.70
2014,01,20,15,54,5.60
2014,01,20,15,55,5.60
2014,01,20,15,56,5.60
2014,01,20,15,57,5.60
2014,01,20,15,58,5.60
2014,01,20,15,59,5.60
2014,01,20,16,00,5.60
2014,01,20,16,01,5.60
2014,01,20,16,02,5.60
2014,01,20,16,03,5.60
2014,01,20,16,04,5.60
2014,01,20,16,05,5.60
2014,01,20,16,06,5.60
2014,01,20,16,07,5.60
2014,01,20,16,08,5.60
2014,01,20,16,09,5.50
2014,01,20,16,10,5.50
2014,01,20,16,11,5.60
2014,01,20,16,12,5.50
2014,01,20,16,13,5.50
2014,01,20,16,14,5.50
2014,01,20,16,15,5.50
2014,01,20,16,16,5.50
2014,01,20,16,17,5.50
2014,01,20,16,18,5.50
2014,01,20,16,19,5.50
2014,01,20,16,20,5.50
2014,01,20,16,21,5.40
2014,01,20,16,22,5.40
2014,01,20,16,23,5.40
2014,01,20,16,24,5.40
2014,01,20,16,25,5.40
2014,01,20,16,26,5.40
2014,01,20,16,27,5.40
2014,01,20,16,28,5.40
2014,01,20,16,29,5.40
2014,01,20,16,30,5.40
2014,01,20,16,31,5.40
2014,01,20,16,32,5.40
2014,01,20,16,33,5.40
2014,01,20,16,34,5.40
2014,01,20,16,35,5.40
2014,01,20,16,36,5.40
2014,01,20,16,37,5.30
2014,01,20,16,38,5.30
2014,01,20,16,39,5.30
2014,01,20,16,40,5.30
2014,01,20,16,41,5.30
2014,01,20,16,42,5.30
2014,01,20,16,43,5.30
2014,01,20,16,44,5.30
2014,01,20,16,45,5.30
2014,01,20,16,46,5.30
2014,01,20,16,47,5.20
2014,01,20,16,48,5.20
2014,01,20,16,49,5.20
2014,01,20,16,50,5.20
2014,01,20,16,51,5.20
2014,01,20,16,52,5.20
2014,01,20,16,53,5.20
2014,01,20,16,54,5.10
2014,01,20,16,55,5.10
2014,01,20,16,56,5.10
2014,01,20,16,57,5.10
2014,01,20,16,58,5.10
2014,01,20,16,59,5.10
2014,01,20,17,00,5.10
2014,01,20,17,01,5.10
2014,01,20,17,02,5.10
2014,01,20,17,03,5.10
2014,01,20,17,04,5.10
2014,01,20,17,05,5.10
2014,01,20,17,06,5.10
2014,01,20,17,07,5.00
2014,01,20,17,08,5.00
2014,01,20,17,09,5.00
2014,01,20,17,10,5.00
2014,01,20,17,11,5.00
2014,01,20,17,12,4.90
2014,01,20,17,13,4.90
2014,01,20,17,14,4.90
2014,01,20,17,15,4.90
2014,01,20,17,16,4.90
2014,01,20,17,17,4.90
2014,01,20,17,18,4.80
2014,01,20,17,19,4.80
2014,01,20,17,20,4.80
2014,01,20,17,21,4.80
2014,01,20,17,22,4.80
2014,01,20,17,23,4.80
2014,01,20,17,24,4.80
2014,01,20,17,25,4.80
2014,01,20,17,26,4.80
2014,01,20,17,27,4.70
2014,01,20,17,28,4.70
2014,01,20,17,29,4.70
2014,01,20,17,30,4.70
2014,01,20,17,31,4.70
2014,01,20,17,32,4.70
2014,01,20,17,33,4.70
2014,01,20,17,34,4.70
2014,01,20,17,35,4.70
2014,01,20,17,36,4.70
2014,01,20,17,37,4.70
2014,01,20,17,38,4.70
2014,01,20,17,39,4.70
2014,01,20,17,40,4.70
2014,01,20,17,41,4.70
2014,01,20,17,42,4.70
2014,01,20,17,43,4.70
2014,01,20,17,44,4.70
2014,01,20,17,45,4.70
2014,01,20,17,46,4.70
2014,01,20,17,47,4.70
2014,01,20,17,48,4.70
2014,01,20,17,49,4.70
2014,01,20,17,50,4.70
2014,01,20,17,51,4.70
2014,01,20,17,52,4.80
2014,01,20,17,53,4.80
2014,01,20,17,54,4.80
2014,01,20,17,55,4.80
2014,01,20,17,56,4.80
2014,01,20,17,57,4.80
2014,01,20,17,58,4.80
2014,01,20,17,59,4.80
2014,01,20,18,00,4.80
2014,01,20,18,01,4.80
2014,01,20,18,02,4.80
2014,01,20,18,03,4.80
2014,01,20,18,04,4.80
2014,01,20,18,05,4.80
2014,01,20,18,06,4.80